RH
32 29 32 33 30 26 18 17 20 16 17 25 29 30 37 39 31 33 40 44 46 42 38 38 38 44 51 46 40 39 38 44 45 35 39 43 34 32 30 26 25 23 21 22 26 29 40 57 63 66 66 66 70 71 72 72 71 72 73 73 73 72 74 75 74 77 76 76 78 76 78 77 77 78 81 82 82 84 87 88 88 88 87 88 88 88 88 90 92 92 92 91 90 90 90 89 91
29 26 28 28 23 25 19 15 19 15 16 22 27 31 33 33 34 36 38 44 47 42 37 33 34 39 43 40 34 37 43 45 42 36 37 36 33 33 27 24 23 19 20 20 21 26 39 51 60 65 64 65 67 68 69 70 69 69 72 72 74 74 74 76 75 77 76 77 78 78 78 76 76 77 78 80 82 81 84 85 85 87 86 87 86 88 90 91 92 93 93 92 91 90 91 90 90
29 26 26 25 18 18 16 14 16 14 16 19 26 33 32 31 34 41 44 44 43 38 37 33 34 39 40 42 40 37 41 39 32 30 30 34 34 28 26 27 23 20 19 18 18 25 40 48 57 63 62 64 63 64 65 67 66 66 70 70 72 72 73 76 76 77 76 78 78 78 78 77 76 76 77 78 81 79 82 84 84 86 85 86 85 87 91 91 93 94 93 92 91 90 90 88 90
27 25 25 23 16 13 14 14 13 13 15 17 27 32 30 31 36 48 50 42 38 38 42 39 36 35 31 38 40 32 34 33 26 25 24 29 29 24 27 29 24 21 18 19 17 21 38 45 55 62 60 61 59 60 60 63 64 64 69 69 72 72 73 75 75 76 76 78 78 78 77 77 76 75 78 76 79 79 81 83 82 84 83 85 85 87 91 90 92 93 92 91 89 90 91 88 89
22 22 21 18 16 13 13 12 10 14 19 19 23 27 26 32 40 47 47 41 39 41 47 46 40 35 30 31 32 29 31 32 28 25 23 23 24 23 28 26 21 20 17 19 16 19 32 37 51 60 58 57 54 56 57 60 62 62 66 67 70 71 72 74 75 76 76 78 77 79 77 76 76 77 79 75 79 80 80 81 79 82 82 84 86 86 90 90 91 91 90 89 87 90 93 90 90
18 17 15 15 17 18 15 11 11 15 24 23 21 24 24 30 38 42 42 43 43 41 45 46 43 39 32 25 25 28 28 30 29 26 22 21 23 24 26 24 19 17 17 18 17 21 24 28 48 56 53 53 50 53 54 56 59 60 63 65 68 70 72 74 75 76 76 77 78 79 78 77 74 77 79 75 81 80 79 81 79 81 82 84 87 86 88 89 88 88 88 89 89 91 94 91 90
18 16 13 13 14 17 15 11 13 13 21 24 21 22 24 31 35 37 39 41 44 42 42 44 41 37 31 23 22 25 24 25 26 25 23 22 22 23 24 22 20 18 16 18 17 21 20 21 40 53 50 49 47 49 51 52 56 59 60 62 65 67 70 73 75 75 76 76 77 79 79 77 73 76 77 75 82 80 78 79 77 81 84 85 87 87 87 87 86 86 86 88 92 93 93 90 91
18 17 15 15 12 13 13 11 16 17 21 24 25 26 28 35 33 33 35 33 36 34 37 42 37 32 31 24 19 22 23 23 22 25 24 22 22 23 24 20 19 18 16 18 18 22 23 17 26 43 46 45 45 46 48 48 52 56 58 59 61 62 63 69 74 76 76 74 74 77 79 77 72 75 76 75 81 79 76 76 75 79 85 85 85 88 87 86 86 85 86 87 90 92 93 92 92
13 14 14 14 12 13 14 13 17 19 22 22 26 32 33 37 31 32 33 26 27 24 26 33 32 29 30 24 20 21 22 23 22 24 24 21 23 23 23 19 18 18 17 18 17 20 22 13 12 26 33 33 34 37 44 45 48 53 55 55 57 58 59 64 70 73 73 71 71 72 76 76 70 70 74 75 78 78 74 73 73 76 82 83 83 88 86 86 86 85 86 85 86 88 92 94 94
11 12 13 13 12 13 13 13 18 18 19 20 24 30 31 35 32 32 31 24 22 21 21 23 27 26 23 21 21 22 21 24 23 23 23 20 22 23 22 20 19 18 18 18 17 18 19 15 11 15 18 19 20 22 30 35 39 47 51 52 53 53 55 58 63 67 69 69 69 70 73 73 68 64 69 71 75 78 72 70 71 74 81 81 81 86 84 83 87 86 86 85 85 87 89 93 94
14 12 13 15 11 11 11 12 17 17 18 20 22 25 26 30 30 29 29 25 21 21 23 23 25 23 20 17 18 23 22 24 23 22 22 20 22 22 21 20 20 18 18 20 19 18 20 22 18 15 15 16 17 17 20 23 26 33 41 47 49 48 49 52 57 61 66 67 66 67 68 68 65 60 62 66 71 75 70 67 69 72 78 80 80 84 83 80 84 87 87 85 85 87 87 88 94
16 14 13 14 10 9 10 11 15 17 19 19 20 23 23 25 28 27 27 25 20 19 23 23 20 18 19 16 16 22 21 22 23 21 21 20 21 22 20 19 20 19 19 20 20 18 19 23 25 24 19 16 18 19 19 20 20 22 27 34 38 39 40 45 51 56 61 62 61 61 61 62 61 58 59 61 65 72 69 64 65 68 74 78 79 80 82 78 80 87 87 87 85 87 88 89 97
16 14 11 13 12 11 11 14 16 18 19 17 17 19 20 23 24 22 21 21 18 18 20 20 16 15 15 13 15 18 17 20 21 20 20 20 20 21 21 19 20 20 20 21 21 20 20 22 25 30 29 26 28 29 28 26 22 21 22 25 27 29 30 34 41 47 53 54 55 55 55 55 55 57 60 59 61 67 67 63 62 64 69 76 76 76 80 75 76 84 86 88 86 87 90 87 84
18 14 13 14 15 12 13 17 17 16 16 15 16 18 18 20 19 17 17 16 16 17 19 19 16 15 13 10 13 13 13 17 19 19 19 20 20 20 21 20 21 21 21 22 23 23 22 22 22 27 31 33 35 35 38 36 27 22 23 23 24 26 24 24 26 31 41 46 49 51 49 48 51 56 57 56 57 61 62 59 59 62 64 71 73 71 76 74 72 81 83 86 88 88 84 65 47
18 13 13 12 13 13 14 17 17 15 15 16 18 19 17 16 18 18 16 14 16 17 18 19 16 14 12 10 11 12 13 17 18 18 20 20 20 20 22 22 22 23 23 23 22 22 21 21 20 23 27 30 31 32 36 39 35 26 22 24 26 27 26 24 20 24 36 43 49 50 44 45 50 50 49 50 51 53 54 52 55 61 62 64 67 68 72 69 68 78 78 80 87 76 58 36 19
17 16 15 12 13 13 14 15 15 15 15 18 19 18 17 17 20 20 16 16 17 17 17 17 17 15 12 11 12 15 16 17 17 18 20 21 21 21 23 23 22 22 24 24 23 21 20 21 20 20 25 27 29 32 33 36 36 27 24 31 34 32 33 29 24 32 41 43 48 48 42 43 44 41 41 42 45 48 47 48 55 61 64 63 63 65 67 63 63 71 70 72 78 55 29 19 14
16 19 16 12 12 12 13 12 13 15 15 19 19 17 18 17 20 20 17 17 16 16 17 16 16 16 14 12 14 17 18 18 18 18 20 21 21 21 22 23 23 22 21 23 23 22 21 21 21 21 24 26 28 32 33 35 35 31 35 42 42 40 40 37 35 41 43 42 45 44 40 39 36 36 38 38 43 47 47 51 54 56 63 65 65 64 61 61 63 65 63 64 61 36 16 20 21
16 17 12 11 12 12 13 11 11 11 12 18 18 17 17 16 19 18 15 16 15 15 16 16 15 16 15 14 15 17 19 19 18 18 19 19 20 19 20 21 21 22 20 20 22 21 20 20 20 21 22 25 27 29 31 36 39 40 42 43 43 41 41 41 41 42 41 41 43 41 38 34 33 38 39 38 42 46 48 49 48 50 56 61 64 62 57 59 62 62 62 61 53 38 35 44 41
13 13 10 13 15 14 13 10 10 9 9 14 15 15 15 14 15 15 14 13 14 16 16 15 15 15 14 15 16 16 18 18 18 17 17 17 18 17 17 18 19 20 20 20 20 19 20 21 21 22 22 25 27 29 30 35 39 39 39 38 38 36 36 39 38 38 39 42 43 41 36 33 37 41 41 40 42 44 43 42 42 45 49 53 55 54 52 53 55 55 57 59 56 54 56 62 59
11 12 13 15 14 13 12 10 10 11 11 12 13 16 15 14 14 13 14 12 14 17 15 15 16 15 13 14 15 16 16 17 18 16 16 16 16 16 15 15 17 18 20 19 19 19 19 21 22 22 24 28 30 32 33 35 37 37 37 35 35 33 33 36 35 33 36 41 45 41 36 37 41 41 39 38 39 39 38 39 41 41 41 44 47 48 46 44 45 45 46 50 50 51 52 55 59
11 12 14 13 12 11 12 12 11 12 12 11 13 15 14 13 14 13 13 14 14 14 13 12 13 13 10 11 13 15 16 16 18 17 17 16 15 16 15 14 14 15 17 19 19 18 19 21 21 21 24 29 32 33 33 34 36 37 36 33 33 32 30 34 35 31 34 38 41 40 39 41 40 37 37 37 38 38 39 39 38 37 38 40 43 43 40 38 41 39 38 41 40 42 47 48 53
12 13 13 11 10 11 13 12 13 14 12 12 14 14 13 14 15 14 13 15 13 12 13 12 10 11 10 10 11 14 15 15 17 18 18 17 16 15 14 15 14 14 16 17 19 19 20 20 20 21 24 29 32 33 32 32 35 36 35 33 32 31 28 33 33 30 33 34 37 40 41 40 37 36 37 38 40 41 40 39 37 37 37 39 40 39 37 37 39 38 35 37 38 39 45 48 50
13 12 11 10 10 11 13 14 16 16 13 13 14 14 14 14 15 13 13 14 12 11 14 14 14 16 16 13 12 13 14 15 16 18 18 18 18 16 15 15 14 15 16 17 19 20 20 19 20 23 25 29 33 34 34 33 34 35 34 33 32 32 31 32 32 31 32 33 37 39 40 39 37 36 37 40 42 42 41 41 41 39 38 39 40 38 37 37 37 37 35 36 38 36 40 46 46
14 13 10 11 11 13 14 15 17 16 14 14 14 15 14 14 14 14 14 14 12 11 13 17 20 20 19 15 13 13 14 14 15 16 17 18 18 18 16 15 14 15 16 17 19 19 20 21 21 23 26 29 31 34 37 35 33 33 35 35 33 33 33 33 32 32 32 33 36 37 40 42 39 36 37 42 44 42 42 43 44 43 40 40 40 39 37 37 37 35 35 35 36 36 36 40 41
16 13 10 11 12 13 15 16 16 16 15 15 15 15 13 12 14 15 15 13 11 11 11 15 18 17 16 14 13 14 14 14 15 15 16 17 17 18 18 17 16 16 16 17 18 19 20 22 23 23 25 27 29 31 34 35 32 32 35 35 33 33 33 34 33 32 32 33 34 36 41 43 40 38 38 42 44 43 44 44 45 44 42 41 41 40 38 37 36 35 35 35 35 36 35 35 38
18 13 10 11 12 13 14 15 15 15 14 15 15 14 12 12 15 15 13 11 11 11 11 12 15 15 15 14 13 13 14 14 14 15 16 17 17 18 18 18 17 17 18 18 19 20 20 20 21 23 24 24 27 29 32 33 31 32 35 35 35 34 33 35 35 33 33 33 33 35 41 43 41 41 41 42 43 44 46 45 44 43 41 42 42 40 39 37 37 36 35 36 36 37 36 35 37
16 13 11 11 12 13 13 13 14 14 14 15 15 14 12 13 17 16 12 12 13 12 13 12 14 15 14 13 13 14 13 13 14 14 15 17 18 19 18 18 18 18 18 18 19 20 21 20 20 23 24 23 25 28 31 31 29 30 32 34 35 34 34 35 34 33 33 33 34 36 42 45 43 41 42 44 46 44 46 46 43 43 41 41 42 40 40 39 39 39 38 38 39 39 39 37 37
12 13 14 13 11 12 13 12 14 14 14 15 15 15 14 15 20 17 12 13 14 13 13 13 14 14 13 13 13 14 14 13 14 14 14 15 16 18 19 19 19 18 18 19 19 20 20 20 19 23 25 24 25 27 29 30 29 29 30 31 33 33 34 35 33 31 32 33 35 37 41 46 45 42 43 45 48 47 46 46 45 46 45 44 44 42 42 44 44 42 41 41 41 41 40 37 38
11 14 17 17 12 13 13 12 14 13 14 14 14 17 16 18 20 14 12 13 13 14 12 12 13 13 13 13 13 13 14 14 14 14 14 14 15 16 16 18 18 18 18 19 20 21 21 20 19 21 24 25 26 27 28 29 29 31 31 32 32 33 34 35 34 32 32 33 35 37 41 46 47 45 43 44 48 48 45 46 46 47 47 45 46 46 46 47 47 44 41 41 41 40 39 38 38
15 17 18 18 15 16 14 12 15 14 15 15 17 21 16 16 17 12 12 13 12 13 12 11 12 12 13 13 13 13 13 14 14 15 15 15 15 15 15 16 17 17 18 19 20 21 22 22 22 22 23 24 25 25 26 27 27 31 33 32 32 33 34 34 33 32 32 33 34 36 39 44 48 48 45 45 48 48 45 44 45 46 46 46 47 47 45 44 44 42 40 40 40 39 38 37 38
18 23 22 18 16 17 16 14 14 15 16 14 19 24 16 13 13 11 12 12 12 13 12 12 11 11 12 12 13 12 12 13 13 14 15 15 15 16 16 16 16 16 17 19 20 21 21 23 24 24 23 22 23 24 24 25 25 27 31 32 32 33 34 33 32 32 32 33 33 34 37 41 45 49 48 47 50 49 45 42 42 44 45 46 47 46 44 43 43 42 41 40 41 41 39 38 39
18 23 21 16 15 17 18 17 16 16 16 15 21 25 17 12 12 11 13 12 12 13 12 13 12 12 11 12 12 12 11 12 12 13 13 14 15 15 17 17 17 17 17 18 19 21 21 22 24 25 24 23 24 24 24 25 25 25 28 31 32 33 34 33 32 32 32 33 32 32 34 39 43 48 49 49 50 51 47 43 41 42 44 47 48 47 44 44 44 43 43 43 44 42 42 41 40
17 18 16 16 17 17 18 19 19 19 18 17 20 23 19 14 12 12 13 13 13 14 14 13 13 13 12 12 12 12 12 12 12 13 13 14 14 15 16 17 18 18 18 18 18 20 20 21 23 25 26 26 26 26 26 26 27 26 26 29 31 32 35 34 33 32 32 32 32 32 34 38 42 46 49 49 51 52 49 45 43 43 44 47 49 48 46 44 45 44 43 45 45 44 43 43 41
15 16 15 17 18 18 19 21 22 20 22 24 21 23 21 16 13 12 12 13 13 14 14 13 13 14 13 13 13 12 12 13 13 12 13 14 14 15 16 16 18 18 19 19 20 20 20 20 22 25 28 29 28 27 28 29 30 29 27 27 29 31 34 35 33 33 33 33 32 32 34 38 41 45 47 48 50 53 52 48 45 46 47 48 49 48 46 46 45 44 44 45 45 45 45 43 43
20 20 18 18 18 17 18 22 27 23 24 28 24 23 22 16 14 13 12 12 13 14 14 14 14 13 13 13 13 13 13 13 13 13 14 15 16 17 17 17 19 19 20 20 21 21 21 21 21 24 27 31 32 29 29 30 31 31 29 27 28 30 32 33 34 34 32 33 33 31 33 37 40 43 46 48 51 54 53 49 46 48 50 49 48 47 45 45 45 46 46 46 47 48 48 46 46
23 24 24 22 21 19 17 21 30 28 26 26 23 22 20 17 16 13 12 12 12 14 14 15 15 14 14 13 13 14 14 13 14 16 18 19 19 20 20 20 21 22 22 22 22 22 22 22 22 23 25 28 32 31 30 31 32 33 31 28 27 29 31 32 34 35 32 32 33 32 32 35 37 40 44 48 52 55 53 50 46 47 51 50 49 47 46 44 44 45 45 46 49 49 48 47 46
23 25 25 23 22 22 17 20 29 30 29 24 20 21 19 17 16 13 12 12 13 15 15 16 15 14 14 14 14 15 14 14 16 19 20 20 21 22 23 23 23 22 22 22 22 23 23 23 23 24 24 25 28 31 30 30 33 34 33 31 29 28 28 30 32 33 34 33 32 33 34 35 35 37 43 48 52 54 54 52 48 47 50 52 50 48 47 46 46 46 46 47 48 48 48 46 44
25 25 22 21 22 22 18 22 27 28 30 25 20 21 20 18 16 12 12 14 15 14 13 14 14 13 14 14 15 15 15 15 16 17 16 16 19 22 23 22 22 21 21 21 21 22 23 23 24 24 25 24 25 29 30 29 31 34 34 32 30 27 27 28 30 30 32 33 33 35 36 34 34 37 43 50 52 52 52 52 50 47 48 50 50 49 49 49 48 49 50 50 48 47 46 43 43
26 22 20 20 22 22 22 29 30 26 29 26 22 24 22 17 15 13 14 15 16 16 16 16 14 13 13 13 15 15 15 15 14 14 13 14 17 20 21 21 21 21 22 22 22 22 22 23 25 26 26 26 25 27 29 29 29 30 32 31 29 26 24 24 26 28 30 32 34 35 35 33 33 37 45 53 54 51 52 52 50 48 47 48 50 49 49 50 49 50 52 51 48 46 43 42 42
24 21 19 20 22 23 24 31 31 24 26 26 26 31 26 19 16 14 15 16 17 18 19 20 20 17 15 15 17 17 15 15 15 15 15 16 17 18 20 21 21 23 23 23 22 23 23 24 25 26 28 28 27 27 29 30 29 29 31 31 29 26 23 23 23 26 28 31 34 35 36 35 33 36 44 52 54 52 53 52 50 49 47 47 49 49 48 47 48 49 51 50 47 46 44 42 41
20 22 22 20 22 25 24 26 27 23 26 32 30 27 23 18 16 13 15 17 16 17 17 18 20 20 19 19 19 18 17 17 17 17 17 18 18 19 21 21 23 23 23 23 23 24 25 26 26 27 28 29 29 29 29 32 33 32 31 33 34 31 29 28 26 25 26 28 32 33 34 36 36 38 42 49 52 53 54 53 52 51 49 48 47 48 48 46 46 47 48 47 47 47 45 42 41
18 23 25 22 22 26 26 25 27 23 25 33 30 24 21 16 13 13 15 16 15 17 17 16 16 16 19 19 16 15 16 18 19 18 18 18 19 20 22 23 24 23 23 25 26 27 28 29 29 28 29 30 31 31 31 32 34 34 32 33 34 33 32 31 28 27 26 27 29 30 31 34 38 40 41 46 50 52 53 54 55 55 52 49 48 48 48 47 46 46 46 47 48 49 47 44 42
20 26 26 24 23 26 29 28 30 26 23 28 29 26 24 17 13 15 17 16 15 18 18 16 15 14 16 17 15 15 17 19 20 19 18 19 20 22 23 24 25 24 25 28 29 30 31 31 31 31 30 31 31 32 32 33 35 34 32 32 31 31 30 28 27 26 26 26 27 28 30 33 38 39 40 44 49 51 52 54 55 57 55 51 49 50 50 48 46 46 47 48 48 47 48 47 43
25 31 29 26 27 29 31 30 29 26 22 25 27 26 25 20 17 17 18 16 15 16 16 15 14 13 13 15 16 18 20 20 21 21 20 20 22 23 24 25 25 25 27 30 31 31 33 33 33 33 32 32 32 33 34 34 35 35 33 33 31 30 29 27 25 24 24 24 25 26 28 30 34 37 39 42 47 51 53 54 54 55 55 52 51 52 51 48 45 46 48 50 50 48 49 47 44
30 34 30 28 30 32 33 31 26 24 25 26 25 24 24 21 17 16 17 15 16 17 16 15 14 14 16 18 20 21 21 21 21 21 21 22 24 24 25 26 26 27 29 31 32 32 33 34 35 36 35 34 34 34 35 35 35 36 36 34 32 31 30 28 27 24 22 22 23 24 25 27 30 34 37 40 45 50 53 54 53 52 51 51 53 53 50 49 47 45 47 49 52 52 51 48 45
33 35 34 33 35 34 32 30 24 25 30 28 24 22 24 22 15 15 16 15 16 16 14 16 16 17 20 21 23 22 21 22 22 22 23 24 25 25 26 27 27 29 31 32 34 34 34 35 36 36 36 36 36 35 35 36 36 38 38 36 34 33 32 30 29 27 24 23 23 23 23 25 27 30 34 37 40 45 49 51 51 49 46 47 53 53 50 50 49 48 49 50 53 55 53 49 47
35 34 34 33 32 29 26 24 23 29 32 28 24 22 24 25 18 14 16 16 17 17 17 19 20 20 22 22 22 22 22 23 23 23 24 25 26 27 27 28 29 30 32 33 35 35 35 36 36 35 34 35 36 36 36 36 38 38 38 37 36 34 33 31 29 28 26 24 24 24 24 25 25 27 31 34 36 40 45 48 48 46 44 45 50 52 50 49 48 50 53 52 54 57 55 50 48
32 29 27 26 25 24 24 23 26 33 32 25 24 23 25 27 21 14 16 20 24 26 24 23 22 22 23 23 22 23 24 24 24 24 26 26 27 28 28 30 30 32 35 35 36 37 37 38 38 36 36 36 36 35 35 36 38 39 38 38 37 35 34 32 30 28 27 26 25 25 25 25 26 27 29 33 35 38 42 45 45 44 43 46 49 48 46 46 46 49 53 53 55 57 56 53 50
30 25 22 25 26 25 28 28 27 30 28 24 23 25 27 25 18 15 17 22 26 26 24 23 23 23 23 23 23 24 24 24 25 26 27 28 28 29 30 30 32 35 37 37 37 38 38 39 39 39 40 40 38 37 36 35 37 39 40 39 37 36 34 33 32 29 28 27 25 25 24 24 25 26 28 32 34 36 40 41 42 43 43 45 49 47 44 44 44 46 49 52 56 56 55 55 53
25 23 23 28 29 32 37 32 27 28 26 23 23 28 31 23 17 18 19 21 22 22 23 23 23 24 24 23 23 24 24 24 26 28 28 29 29 29 31 32 35 38 38 38 39 39 39 39 39 40 41 41 41 39 38 37 35 36 38 38 38 37 36 35 33 31 30 28 26 24 23 22 22 23 25 28 30 34 37 37 37 41 42 45 48 48 44 43 44 45 47 51 54 54 53 54 55
22 22 22 26 27 33 39 34 33 36 30 25 27 32 32 24 20 20 19 21 21 21 22 22 22 23 22 22 23 24 25 25 27 28 29 29 29 30 32 34 38 39 39 39 38 38 39 39 38 39 39 40 42 42 40 38 37 35 34 36 37 37 37 37 35 33 31 29 28 25 22 21 21 21 22 25 27 30 34 36 36 38 41 44 47 48 46 45 45 47 47 47 49 50 51 53 55
22 20 22 26 25 26 30 31 32 38 37 33 31 30 24 17 18 19 20 22 21 21 21 20 22 21 21 22 23 24 26 26 27 29 29 29 30 31 33 36 39 39 39 38 38 38 40 40 39 39 39 39 40 42 43 42 39 38 36 34 35 36 37 37 37 35 33 30 29 27 25 22 20 21 21 23 26 28 31 34 35 37 41 43 44 46 47 46 47 48 47 45 45 47 49 52 54
23 21 24 26 24 24 29 32 29 33 41 36 28 26 20 16 18 18 20 22 21 22 22 21 22 21 20 22 23 24 26 27 28 29 30 31 31 33 34 37 40 39 39 39 39 39 39 39 39 40 42 41 38 38 42 44 42 40 39 37 35 35 35 35 34 34 34 32 30 28 26 23 21 21 22 24 27 28 30 31 34 37 41 43 42 43 45 46 46 47 47 45 44 46 48 50 52
26 24 26 25 26 26 28 35 35 37 42 34 25 27 26 25 25 20 20 23 24 24 23 22 22 20 20 22 23 25 26 27 29 29 31 32 32 33 35 38 39 38 38 38 38 39 39 39 39 39 40 41 40 37 36 39 38 36 38 40 39 38 37 36 34 33 32 32 31 30 28 25 23 23 23 25 27 29 31 32 33 36 41 43 43 42 44 45 45 45 46 46 45 45 48 50 51
28 27 27 25 31 31 28 36 42 43 45 38 30 30 29 28 26 22 23 26 25 24 24 23 22 20 21 23 24 26 27 29 31 31 33 32 31 33 37 39 38 37 37 38 38 39 40 40 40 41 40 40 41 39 37 38 38 38 39 38 37 38 38 37 35 35 33 32 31 30 29 27 25 25 26 27 29 29 31 34 36 38 40 42 43 43 44 44 46 47 46 46 46 47 49 50 51
30 29 26 24 29 31 30 35 39 41 45 44 40 38 32 25 22 22 25 25 24 25 25 23 22 22 22 24 26 28 30 32 33 33 33 32 31 35 39 40 38 36 37 38 39 40 42 43 43 43 42 42 42 42 42 42 43 44 43 39 36 37 40 39 36 34 34 33 32 31 30 29 27 27 28 30 31 31 33 36 39 40 40 42 43 44 44 44 46 47 47 46 46 47 48 49 51
28 28 29 30 29 29 32 35 35 37 41 43 46 45 33 22 21 22 23 23 23 25 25 23 23 22 23 25 28 31 33 34 34 34 33 33 35 38 40 38 36 37 39 39 40 41 42 44 45 46 46 46 46 46 46 45 45 45 44 42 39 38 41 44 40 36 34 33 33 33 32 31 30 30 31 32 34 34 36 37 39 42 42 43 44 44 44 44 45 46 47 46 47 48 49 49 51
24 25 27 28 29 32 37 41 40 40 42 44 48 49 36 22 19 20 21 21 23 23 24 24 23 24 26 28 30 33 35 34 33 34 35 37 40 42 40 36 35 37 38 37 38 40 41 44 47 49 50 49 49 49 48 47 46 46 44 42 42 40 41 45 45 39 36 35 33 33 34 34 33 32 33 35 36 36 38 41 42 43 44 45 45 46 45 45 46 46 46 47 49 50 50 50 52
Wind_Speed
4 3 1 2 3 6 4 2 2 1 1 2 3 2 4 4 5 6 6 5 3 4 4 3 3 2 2 3 3 4 4 5 4 2 1 5 7 6 5 4 3 2 3 5 6 8 9 13 15 15 16 16 17 18 18 19 19 20 20 20 19 20 19 19 19 19 19 19 19 19 20 20 21 23 23 23 24 24 24 25 25 25 25 25 24 24 23 22 22 22 22 22 22 23 24 26 28
3 2 1 2 3 5 2 1 3 3 3 3 3 2 6 5 4 4 5 4 4 6 4 3 3 2 2 2 2 1 4 5 4 4 5 9 9 6 5 4 3 2 4 5 6 8 9 13 14 14 15 15 16 17 18 18 19 19 19 19 19 20 20 19 19 19 20 19 19 19 19 20 21 22 22 22 23 23 23 24 24 25 24 24 24 23 23 22 22 22 22 22 22 22 23 25 27
2 4 4 4 2 3 1 2 4 3 3 3 4 4 6 5 4 5 7 7 8 7 3 1 1 0 2 4 2 3 1 4 5 6 7 9 8 7 6 4 3 2 3 5 7 7 8 11 12 12 13 14 15 15 16 17 17 18 18 19 19 19 19 19 19 19 19 19 19 19 19 20 20 21 21 21 22 22 22 23 24 24 24 24 23 22 22 22 22 22 22 22 22 23 22 24 25
3 5 5 6 3 1 3 2 3 2 1 3 4 6 6 4 7 8 8 8 7 5 1 0 1 1 3 3 1 3 2 5 4 4 6 7 6 9 8 4 4 3 3 5 7 6 7 10 10 10 11 12 13 14 15 16 17 17 18 18 18 18 18 18 18 18 19 19 18 19 19 20 20 20 20 20 21 21 21 22 23 23 23 23 23 22 22 22 22 23 23 23 23 23 23 22 23
3 3 4 7 3 0 2 1 2 2 2 3 3 7 6 4 8 8 8 7 5 2 1 1 1 3 2 3 2 2 3 6 5 4 6 8 8 9 7 5 5 2 3 4 5 5 7 8 8 8 10 11 12 14 14 15 16 17 17 17 18 17 17 17 17 17 17 18 17 18 18 19 20 20 19 19 19 19 20 21 22 22 22 22 22 22 22 22 23 23 23 23 23 23 23 22 22
2 1 3 3 1 1 2 1 0 2 4 5 3 7 5 6 7 8 8 6 4 1 1 2 2 0 2 2 2 1 3 4 7 6 6 9 9 8 7 5 4 2 3 3 4 4 6 7 6 7 8 10 11 12 14 15 15 16 17 17 17 17 17 17 16 17 17 17 17 17 18 18 19 19 19 19 18 18 19 19 20 21 21 21 21 21 22 22 23 23 23 23 23 22 23 22 22
3 1 2 2 2 1 2 2 2 3 4 5 4 7 6 7 7 8 8 6 5 4 3 3 1 3 2 3 3 2 4 4 7 7 7 10 10 8 7 5 4 2 2 2 3 2 5 6 5 6 7 8 10 11 13 14 15 16 17 17 17 17 17 17 16 16 17 17 17 17 17 18 18 18 18 18 17 17 18 18 19 20 20 20 20 21 21 22 22 23 23 23 23 22 22 22 21
3 3 1 1 1 1 1 3 2 2 3 2 4 5 7 8 7 8 8 6 4 5 5 5 4 5 1 1 3 6 8 5 7 8 9 10 10 8 7 5 4 3 1 1 1 1 4 5 4 4 6 7 9 10 11 13 14 15 16 17 17 18 17 17 16 16 17 17 17 17 17 18 18 18 18 18 17 17 18 18 18 19 19 19 19 20 20 21 22 22 22 22 22 23 22 22 21
2 2 1 2 1 2 1 3 2 2 4 5 3 5 6 7 6 6 8 6 3 3 5 7 7 5 2 2 3 6 9 9 8 9 10 9 10 8 7 6 5 4 2 2 1 0 2 4 4 3 5 6 8 9 10 11 13 14 15 17 17 18 18 17 17 16 17 17 17 17 17 17 18 18 18 17 17 17 17 18 18 19 18 19 19 19 19 20 21 21 21 21 21 22 22 21 21
1 1 2 3 2 2 2 2 3 3 5 6 4 6 6 7 6 5 6 5 3 4 4 5 7 7 1 3 3 5 9 13 11 10 11 10 10 9 8 7 6 4 4 3 2 2 3 4 3 3 5 6 8 10 10 11 12 13 14 16 17 18 18 18 17 17 16 17 17 17 17 17 18 18 17 17 16 16 16 17 17 18 18 18 19 18 18 19 20 20 20 20 20 21 21 21 21
2 1 1 3 3 2 0 2 3 4 6 5 5 6 6 7 7 5 5 4 3 4 5 5 5 8 6 6 2 6 11 14 13 12 12 11 11 10 8 7 7 5 5 4 4 3 3 4 5 5 5 6 8 10 11 12 13 14 15 15 16 18 18 18 17 17 16 17 17 17 17 17 17 17 17 16 15 15 16 17 17 18 18 18 18 18 18 19 19 19 19 19 20 20 20 20 21
3 1 2 3 2 2 3 1 3 4 6 6 6 7 5 7 7 6 7 6 4 6 7 8 2 2 6 5 2 8 12 14 13 13 13 13 11 10 9 8 8 7 6 6 5 4 4 5 5 6 6 8 8 10 11 13 14 16 17 17 18 19 19 19 18 17 17 17 17 17 18 17 18 17 16 16 15 14 15 16 17 17 18 17 18 18 18 18 19 18 18 18 19 19 19 19 19
3 1 4 2 2 2 1 1 3 4 4 6 7 8 7 8 8 6 6 6 6 7 6 9 2 2 6 3 4 8 10 14 14 13 14 13 11 10 10 9 8 8 8 7 7 7 6 5 5 6 7 9 9 11 12 13 15 16 18 19 20 21 21 21 19 18 18 17 17 17 18 17 18 17 15 15 14 14 14 15 16 17 18 17 17 17 17 18 18 18 18 17 17 17 17 18 19
2 1 4 1 1 1 1 0 3 2 2 6 6 9 8 6 6 5 4 7 6 3 1 4 3 2 6 4 4 6 8 15 15 13 14 13 11 10 11 10 9 9 10 10 9 9 8 7 6 6 7 6 6 8 10 13 17 18 18 20 21 21 22 22 22 21 19 18 18 17 18 18 18 15 14 14 14 14 14 15 17 17 18 18 17 17 17 17 17 17 17 17 17 16 17 19 21
3 1 3 1 2 2 1 0 1 3 1 8 7 8 9 4 2 4 5 6 1 4 4 3 5 3 2 3 2 5 8 15 15 13 13 12 11 10 10 10 11 11 11 11 11 10 9 9 7 7 7 6 6 6 7 9 15 19 20 21 21 22 23 23 24 23 20 18 17 17 19 19 16 14 14 14 14 14 15 17 17 17 18 18 17 17 16 16 16 15 16 16 16 17 19 21 22
3 2 3 2 1 2 2 1 1 3 2 8 7 8 9 5 4 5 1 3 2 4 3 4 7 5 5 3 4 8 8 12 14 13 12 12 11 10 10 12 12 12 13 13 13 12 11 10 9 8 7 7 7 7 8 8 13 19 20 18 20 21 21 22 23 20 17 16 14 17 19 17 14 13 14 14 14 14 17 19 17 17 18 18 17 16 15 16 15 14 15 15 15 18 21 22 22
3 2 4 3 1 0 1 1 1 0 4 7 8 8 8 6 5 4 2 3 6 4 6 6 8 8 8 1 7 7 7 11 13 13 12 12 11 11 12 13 13 14 14 14 15 13 12 12 10 9 8 8 7 8 9 9 13 17 15 11 14 16 16 18 19 14 13 14 13 15 17 14 12 13 15 15 14 16 18 18 16 17 18 18 16 14 15 16 14 14 14 14 16 20 22 22 22
3 3 4 2 2 2 3 3 3 2 2 6 8 9 8 5 6 4 1 6 9 8 8 9 9 11 12 5 8 7 7 10 13 13 13 13 12 12 13 13 14 14 14 14 15 14 13 12 11 11 9 8 8 8 8 9 11 11 9 8 10 11 11 13 13 11 12 12 12 15 14 12 13 15 15 15 15 18 19 17 17 18 18 17 14 13 16 14 12 14 14 15 17 19 19 18 20
3 3 3 2 4 3 4 5 5 3 2 6 7 8 7 3 4 5 4 8 8 10 10 10 12 13 14 13 11 10 9 11 13 14 15 15 14 14 13 13 14 14 14 13 13 13 14 13 12 11 10 9 9 9 8 9 9 8 9 9 9 9 9 10 10 10 11 11 12 13 13 13 14 15 14 15 17 18 17 17 18 18 17 14 13 14 15 12 12 13 12 14 15 14 14 13 15
1 3 3 3 4 4 5 5 5 5 4 3 6 5 6 2 2 5 5 9 8 11 11 10 12 13 14 16 17 15 12 13 13 15 16 16 17 16 15 14 14 14 14 13 12 12 13 13 12 12 11 11 11 10 9 9 9 9 9 9 9 9 9 9 10 10 10 10 11 12 13 14 14 14 14 15 16 16 16 17 16 16 14 12 12 14 13 11 11 12 11 12 11 10 11 11 13
1 2 3 5 2 2 5 5 6 5 4 1 4 3 6 3 2 5 6 9 9 10 10 9 9 10 10 12 17 18 15 15 15 16 17 18 18 17 17 15 15 13 12 13 13 13 12 13 12 12 12 12 11 10 9 9 10 10 11 10 8 8 9 9 9 10 10 9 10 12 13 13 13 13 14 14 14 14 15 15 15 14 13 12 12 13 11 11 12 11 11 10 10 11 11 11 12
2 2 3 5 3 2 4 4 5 4 3 0 3 3 3 2 4 9 10 10 8 4 1 4 5 6 6 5 9 15 15 15 16 17 18 19 19 18 18 16 15 14 13 13 14 14 13 13 13 13 12 12 13 12 11 10 11 11 10 9 9 10 10 9 9 10 8 10 12 12 12 12 13 13 13 13 13 14 14 13 13 13 13 13 12 11 11 11 11 11 10 10 11 11 11 11 12
1 3 3 4 5 3 3 3 3 2 2 2 2 2 1 3 8 9 12 15 12 5 1 1 3 3 4 3 4 10 12 13 15 18 18 19 19 19 19 17 16 15 14 15 15 14 14 15 14 14 13 13 13 13 13 12 11 11 10 10 13 12 9 9 10 8 9 12 12 10 10 12 13 13 13 13 13 13 13 13 13 13 13 13 11 11 11 11 11 11 11 10 11 11 11 11 12
2 3 3 3 4 3 3 3 1 1 2 2 2 3 5 9 9 5 10 16 15 12 7 3 1 0 1 3 6 9 11 13 14 16 17 17 18 19 19 18 17 15 15 16 16 15 15 15 14 15 15 14 14 13 13 13 12 11 11 11 12 10 10 10 9 9 12 12 9 9 10 11 12 13 13 13 13 13 13 13 13 13 13 12 11 11 11 11 11 11 11 11 11 11 12 12 12
4 3 3 2 3 3 3 2 1 1 2 2 4 7 9 10 6 7 15 17 14 15 12 7 6 5 5 7 8 9 10 12 13 14 15 16 16 17 18 19 18 17 18 18 16 15 15 15 15 16 16 15 14 13 13 13 12 12 12 12 11 10 11 10 9 11 12 9 8 9 9 10 12 13 13 13 12 13 13 13 13 13 12 12 11 11 11 11 11 11 11 11 11 11 12 12 12
4 3 3 2 3 3 3 2 2 2 2 2 7 10 10 5 4 11 16 13 9 8 9 8 8 9 9 9 9 10 10 12 13 14 15 15 14 16 18 18 18 19 20 18 17 17 16 16 16 17 17 16 15 14 14 14 13 13 13 12 12 12 11 10 11 12 9 9 9 8 9 11 12 12 12 13 13 13 13 13 13 12 12 12 11 11 11 11 11 11 11 11 11 12 13 13 13
2 3 2 2 3 3 3 3 2 3 4 3 8 12 10 1 1 9 6 2 1 2 5 7 7 9 9 9 10 11 12 13 14 14 14 14 14 16 17 18 19 20 20 19 19 19 17 17 17 17 18 17 16 16 16 15 14 14 13 12 12 12 11 11 12 10 9 10 9 9 11 11 11 12 13 13 13 13 13 13 12 12 12 12 11 11 11 10 11 11 12 12 12 13 13 13 13
2 3 2 4 4 4 4 4 1 3 3 1 9 16 13 3 4 12 6 5 4 3 5 6 7 8 8 9 9 9 11 12 12 13 14 15 15 15 16 17 19 20 19 21 21 19 19 19 19 18 18 18 18 18 18 17 16 15 15 14 14 13 13 13 12 11 10 10 10 11 11 10 11 12 13 12 12 12 13 13 12 12 12 11 11 11 11 11 12 13 13 13 12 12 13 13 13
3 3 3 3 6 5 5 4 1 3 1 3 10 14 9 9 10 12 6 5 3 4 6 6 7 7 6 7 7 7 9 10 10 12 14 15 15 15 17 17 17 18 18 19 19 19 20 20 19 19 18 18 19 20 19 18 17 16 16 16 15 14 15 14 13 12 11 10 10 11 11 11 11 12 12 12 12 13 13 13 12 12 12 11 11 11 11 12 12 13 12 11 12 12 13 13 14
3 4 4 3 5 4 5 2 2 3 1 3 7 8 3 10 14 7 6 6 4 5 6 6 6 6 6 6 6 7 8 10 11 13 14 14 15 16 17 18 17 17 17 17 17 19 19 19 18 20 22 21 22 23 21 19 17 16 17 17 16 16 16 14 13 12 11 11 11 11 11 11 11 11 12 12 12 12 13 13 13 12 11 11 11 11 12 12 12 12 12 12 12 12 13 14 14
3 1 1 3 3 2 6 3 2 3 1 1 4 6 6 3 9 8 7 6 5 5 7 7 7 5 5 6 6 7 8 10 12 14 15 15 15 15 16 18 17 18 18 18 19 19 19 18 19 23 28 28 26 27 26 22 19 18 18 18 16 17 17 14 14 14 12 12 11 11 11 11 12 12 12 12 12 12 12 13 13 12 11 11 11 11 12 12 12 12 12 12 12 12 13 14 14
2 2 2 2 4 1 5 3 2 2 1 2 3 5 9 8 1 8 7 6 7 8 9 8 8 7 6 6 6 7 8 10 12 14 15 15 15 15 16 17 17 18 19 20 20 19 20 20 21 25 29 30 29 29 28 26 21 19 19 19 18 18 19 17 15 15 14 13 12 12 12 12 13 13 12 12 12 12 12 13 13 12 11 12 12 12 12 12 12 13 13 12 12 13 13 14 15
2 2 5 4 5 4 0 3 2 2 1 4 5 5 10 7 1 6 7 8 8 9 10 9 8 7 7 6 6 6 7 8 10 12 12 12 13 13 14 15 16 17 18 20 20 20 21 21 21 24 27 27 26 25 26 25 23 20 19 18 19 20 20 19 16 16 15 14 14 14 13 12 13 13 13 12 12 13 13 13 13 13 12 12 13 13 13 13 13 13 13 12 12 13 14 14 15
1 2 6 4 4 7 4 1 3 2 2 4 6 8 14 14 9 8 7 9 9 9 10 8 6 5 5 4 5 5 5 6 7 7 7 7 9 11 12 14 15 16 18 19 20 21 21 21 20 22 25 24 22 21 21 22 22 20 19 18 19 20 20 19 17 16 16 16 15 15 14 13 13 13 13 12 13 13 13 13 13 13 13 13 13 14 14 14 14 14 14 13 13 13 14 14 15
5 5 6 5 5 7 7 2 2 1 4 8 9 11 17 19 15 14 10 9 10 9 8 7 5 4 3 3 4 4 4 5 5 6 5 5 7 9 10 12 14 16 17 18 19 20 20 20 19 20 22 22 21 20 19 20 20 20 19 18 18 20 20 19 18 18 17 16 16 16 16 15 14 14 14 13 13 13 13 13 13 14 14 14 14 14 15 14 15 15 15 15 14 14 15 15 16
5 5 5 7 7 7 8 2 4 4 6 9 11 11 17 20 16 15 14 10 8 7 6 4 3 2 2 2 2 2 3 3 4 5 5 5 7 8 9 10 11 13 14 15 16 17 18 18 17 19 19 18 18 18 18 18 18 19 19 19 19 20 19 19 19 20 19 18 17 17 18 17 16 14 13 13 14 14 13 13 13 14 14 15 15 15 15 15 15 15 15 15 15 15 15 16 16
4 5 5 7 7 7 7 2 5 3 4 8 9 12 17 20 17 15 12 5 3 6 4 2 2 2 2 1 1 1 1 2 3 6 7 7 8 7 7 8 10 11 13 13 15 16 16 16 17 19 18 16 16 17 17 18 18 18 18 19 20 19 18 18 19 20 20 20 18 18 19 18 17 16 14 14 15 14 14 14 14 14 15 15 16 16 16 16 16 15 14 14 14 15 15 15 15
3 5 6 7 7 7 6 3 3 2 2 7 9 12 17 19 17 13 7 1 2 4 4 4 3 4 3 2 1 0 1 2 4 6 6 6 4 2 3 8 9 10 13 13 13 14 14 15 16 18 17 16 17 17 17 18 19 19 18 18 18 17 17 18 18 18 18 19 20 20 20 20 18 17 16 15 16 15 14 14 15 15 15 15 16 16 16 16 16 16 15 14 14 15 15 15 13
4 5 6 6 4 5 4 3 4 2 2 7 10 10 16 19 15 8 1 2 2 2 2 3 3 3 3 3 1 1 2 3 5 7 11 13 12 8 8 9 8 9 12 13 12 12 13 14 15 16 16 16 17 18 19 20 19 18 18 18 16 16 16 16 16 16 16 17 19 21 22 21 20 18 17 16 17 16 16 16 16 15 16 16 15 15 16 16 16 16 15 14 14 14 14 14 13
6 5 5 6 4 5 4 2 0 5 6 9 11 9 14 14 7 0 3 3 2 1 1 1 2 2 1 1 1 2 3 5 7 9 12 15 16 16 16 15 13 12 12 12 13 13 13 14 15 15 15 16 17 18 20 21 20 18 18 18 17 16 16 15 14 15 16 17 18 20 22 22 22 20 18 18 18 17 17 17 16 16 16 16 16 16 16 16 16 15 14 14 13 13 13 13 13
6 7 5 6 5 5 6 5 9 11 6 5 9 9 7 4 4 4 4 2 2 3 3 4 4 4 3 3 3 4 4 4 7 9 11 13 16 17 18 18 17 16 15 15 15 15 15 15 16 15 15 15 16 17 18 18 18 17 16 16 17 18 18 17 17 18 18 19 21 22 22 23 23 21 19 19 19 18 18 18 17 17 16 16 16 16 16 16 16 15 14 14 13 13 13 12 12
5 5 3 4 5 5 8 9 10 9 3 2 3 8 2 4 5 5 5 4 4 5 4 5 6 5 5 4 4 2 1 5 8 9 11 14 16 18 18 18 17 17 16 16 16 16 16 16 16 16 15 15 15 16 16 16 16 17 16 16 16 17 18 19 21 22 20 20 23 24 23 22 22 21 20 20 20 19 19 19 18 18 17 17 17 16 16 16 15 15 14 13 13 13 13 13 12
5 0 2 3 3 6 8 9 7 6 6 0 2 5 4 2 4 3 6 5 5 6 6 6 6 5 4 3 1 5 8 9 10 11 13 15 17 18 18 18 18 17 15 15 16 16 16 17 16 16 15 15 15 16 15 15 17 17 18 20 20 19 20 21 21 21 21 21 21 21 20 21 22 22 20 20 21 21 20 19 19 19 18 18 17 17 17 17 16 15 14 14 13 13 13 13 13
3 1 2 2 3 7 7 7 5 5 8 5 4 4 6 6 3 5 6 4 5 6 6 5 4 3 2 2 7 10 11 11 10 11 12 15 17 18 18 18 17 17 16 16 17 17 16 17 17 17 17 16 16 16 15 16 17 18 19 20 21 22 24 24 22 20 19 18 18 18 18 19 21 21 21 21 21 21 21 20 20 19 19 19 18 18 18 17 16 15 14 14 14 13 13 14 13
1 3 1 3 4 7 6 6 6 4 6 5 4 4 5 5 1 5 5 3 4 5 4 3 1 2 4 7 11 11 10 10 11 11 12 15 17 17 17 17 17 16 16 18 20 20 18 17 17 18 19 17 17 17 17 18 19 19 19 20 22 23 24 24 23 22 20 17 17 18 17 17 19 20 21 21 21 22 22 22 21 21 20 20 19 19 19 18 17 16 15 15 15 14 14 14 14
1 1 3 4 5 6 5 5 5 3 5 4 3 3 4 6 4 2 3 2 4 4 4 5 6 9 11 11 11 10 9 9 10 11 13 15 16 16 16 16 16 15 16 20 22 21 20 19 18 18 19 18 18 17 17 18 19 19 18 20 23 24 24 23 22 22 21 19 18 18 19 19 18 19 21 22 22 23 23 22 22 22 21 21 20 20 20 19 19 18 17 16 15 15 15 15 15
2 3 5 6 6 5 4 4 3 3 4 2 4 2 3 5 3 3 3 2 5 5 4 8 11 12 11 9 9 10 10 10 10 11 13 16 16 16 16 15 15 16 18 21 22 21 21 21 20 20 20 19 19 17 16 17 18 17 19 20 23 24 25 24 23 23 22 21 20 20 20 20 19 20 20 21 22 23 23 23 23 22 22 22 22 21 21 20 19 18 18 17 17 17 16 15 15
2 5 6 6 4 3 3 3 3 4 3 2 4 0 3 4 3 3 5 7 9 8 7 9 10 10 9 9 9 10 9 10 10 11 12 15 16 16 16 15 15 17 21 23 23 21 21 21 21 22 22 21 21 19 17 17 17 18 20 21 23 24 24 24 25 25 24 23 22 21 20 20 19 20 20 20 22 23 24 24 23 23 22 23 23 22 21 20 19 18 18 18 18 18 18 17 16
4 5 5 6 5 3 4 3 3 5 0 4 3 2 3 8 7 5 9 11 11 8 6 7 7 8 9 9 10 9 9 10 11 11 11 12 13 15 15 14 15 19 22 23 22 21 20 20 20 21 22 23 22 21 20 18 17 19 20 21 22 23 24 24 25 26 26 25 24 23 21 21 20 21 21 22 22 24 25 24 24 24 24 24 24 23 22 21 20 19 18 18 18 18 19 18 18
3 3 4 5 6 6 7 5 6 6 1 4 4 2 5 8 4 5 10 11 9 8 6 5 6 7 8 8 9 10 10 11 11 11 11 11 13 15 13 13 16 20 23 23 22 21 21 21 21 22 23 23 23 23 23 21 19 20 20 20 21 21 22 23 24 25 26 26 25 25 24 23 22 22 23 23 23 24 25 25 24 24 24 24 24 23 22 21 21 20 19 19 19 18 18 19 19
2 2 3 4 4 5 7 6 7 7 6 1 2 0 4 4 2 8 11 10 8 8 7 6 6 6 7 8 9 10 10 11 11 11 12 12 15 15 11 13 18 22 25 25 25 25 25 25 25 25 24 23 23 23 24 23 22 21 21 21 21 21 22 23 23 24 25 26 26 27 26 24 23 22 22 23 23 24 25 25 24 24 24 24 24 23 23 22 22 21 20 19 19 18 18 19 19
0 1 2 3 2 4 6 8 7 6 7 5 3 3 4 3 2 9 11 9 8 9 9 9 8 8 9 9 10 10 10 10 11 12 12 14 16 14 11 15 21 26 29 30 30 29 28 28 28 28 27 25 23 22 23 24 24 23 23 23 22 22 23 23 23 24 25 26 27 27 27 26 25 22 21 21 22 25 25 24 24 24 25 24 24 23 23 22 22 22 20 20 20 19 19 20 19
1 1 2 1 2 4 6 7 4 2 6 6 4 5 6 5 1 9 10 7 8 10 11 11 11 12 12 11 10 11 10 11 12 12 12 14 16 13 13 19 26 30 31 30 30 30 29 30 30 30 30 30 29 24 22 24 26 27 26 24 23 23 23 24 24 26 26 26 26 27 27 27 25 23 21 20 22 24 24 24 24 24 25 25 24 24 24 23 22 22 21 20 20 20 19 20 20
2 2 3 2 1 1 3 5 3 4 7 6 5 8 7 6 3 7 6 8 10 12 14 14 15 15 14 12 12 13 13 12 14 15 14 16 16 13 17 25 30 32 31 30 31 30 30 31 31 32 31 32 32 29 26 27 30 31 29 27 26 25 24 25 25 26 26 26 26 26 26 27 26 23 22 22 22 24 24 24 24 24 24 25 25 24 24 24 23 22 22 21 21 20 20 20 20
2 3 3 2 3 2 3 3 4 6 8 7 7 8 7 7 4 1 5 10 12 14 15 14 15 16 14 13 14 15 15 14 15 14 13 16 17 17 22 29 32 33 31 31 31 30 30 31 32 33 32 31 31 31 30 31 33 33 31 29 30 29 28 26 25 26 26 25 26 27 27 27 26 24 24 26 26 26 25 24 24 24 24 24 25 25 24 24 24 23 22 21 21 21 21 20 20
1 3 2 1 2 4 3 2 4 6 8 8 7 5 5 4 3 5 7 10 11 13 13 13 14 15 14 14 14 14 14 14 14 14 14 17 19 20 26 30 31 33 32 30 30 30 30 31 31 33 33 32 31 31 32 33 33 34 33 33 33 33 31 29 26 25 25 26 26 27 27 27 26 25 26 27 29 28 26 24 24 24 24 24 25 25 25 24 24 24 23 22 22 22 22 21 20
2 3 3 2 2 2 3 3 3 5 8 7 7 6 3 1 4 6 7 9 10 11 13 12 13 15 15 14 14 14 14 14 14 15 16 17 20 24 27 29 30 32 31 30 30 30 30 30 30 32 33 33 32 32 32 33 33 34 36 36 36 34 33 30 28 26 25 25 26 26 26 26 26 27 27 28 30 30 27 25 25 24 24 24 25 25 25 24 24 24 24 23 23 23 23 22 21
2 3 3 3 3 2 5 5 2 2 5 5 7 9 5 2 1 4 6 8 9 11 13 13 14 16 16 15 15 15 14 15 17 16 15 17 22 25 26 28 31 31 31 31 31 31 32 32 31 31 32 32 33 33 34 34 35 36 36 37 37 35 33 31 31 28 24 24 25 25 26 25 26 28 30 31 31 31 28 26 25 25 24 24 25 25 25 24 24 24 24 24 23 24 24 23 22
Wind_Direction
3 8 3 270 282 271 255 272 240 162 237 113 105 143 109 82 105 138 137 138 146 96 73 70 69 26 331 347 9 23 25 357 357 321 1 104 135 134 126 122 90 62 32 17 12 11 11 15 15 13 15 15 15 15 13 13 12 12 11 10 9 8 7 7 6 6 5 4 3 2 1 1 359 360 0 1 1 1 1 1 2 2 2 2 3 2 2 2 1 0 360 358 358 359 0 2 4
344 313 300 256 269 281 256 276 261 153 193 151 111 88 114 136 158 141 123 111 84 99 112 82 85 61 342 337 313 286 67 51 49 59 85 125 145 142 143 135 110 82 41 22 15 14 14 13 12 13 13 14 14 13 12 12 11 10 10 9 8 7 7 6 5 5 5 4 3 2 2 0 359 359 360 0 0 0 360 360 0 0 1 0 1 2 1 1 0 0 358 356 354 354 355 357 358
331 293 280 257 241 291 243 243 260 178 199 145 113 104 127 163 147 101 85 89 91 104 128 124 174 70 263 234 241 274 107 107 104 98 116 149 159 148 156 143 122 96 45 27 19 16 17 12 11 12 12 13 13 12 12 11 11 10 10 9 8 7 6 5 4 4 4 4 3 2 1 0 359 359 359 359 359 359 359 359 360 360 359 359 359 360 359 360 0 0 358 354 353 350 349 350 351
351 303 292 276 232 241 248 243 280 255 214 106 119 130 153 160 115 100 90 100 104 110 115 125 210 87 287 265 335 301 151 129 124 111 129 156 145 136 157 142 115 93 51 32 22 23 19 11 12 12 11 13 11 12 12 11 11 10 10 9 9 8 7 5 4 4 3 4 4 3 2 1 360 360 359 358 359 358 358 359 359 359 358 359 358 358 358 359 359 359 357 354 352 351 348 346 346
351 308 313 294 269 348 287 256 283 289 31 46 114 138 159 129 112 116 114 117 115 115 70 321 257 104 275 279 304 275 129 122 138 141 128 137 129 135 154 130 121 96 55 36 24 31 14 7 15 13 11 13 11 13 13 13 12 11 11 9 9 8 7 6 4 4 4 5 4 3 2 2 2 1 0 359 359 359 358 357 357 357 357 358 357 357 358 358 358 357 356 354 353 351 351 349 347
317 39 37 336 337 337 265 192 169 73 44 8 86 133 146 126 129 130 128 132 137 158 85 260 270 90 250 176 224 294 101 122 143 153 141 142 143 147 146 125 134 107 64 41 31 35 7 5 18 14 13 13 13 15 16 15 14 13 11 10 9 7 7 5 4 4 3 4 3 2 2 2 2 0 1 360 359 359 359 358 358 357 356 357 357 357 357 358 357 356 355 353 353 351 352 350 348
313 295 82 102 125 247 263 103 73 91 67 5 67 135 145 132 140 139 149 161 175 196 192 224 240 259 253 136 207 160 117 118 132 150 142 145 150 153 150 142 149 129 90 51 36 23 353 4 26 16 14 14 15 15 16 16 14 13 12 10 9 7 6 3 2 2 2 3 2 1 0 0 1 360 360 360 359 359 359 359 359 358 357 357 357 357 356 357 356 355 354 353 352 352 351 350 349
317 294 266 265 176 204 274 94 70 63 94 65 60 112 133 138 148 156 172 180 181 180 185 188 195 240 194 143 232 141 146 140 128 143 139 146 157 162 159 160 168 164 157 111 28 12 343 356 26 18 15 13 13 14 13 13 12 12 11 10 8 6 3 2 0 360 1 359 359 358 357 358 359 358 358 359 358 358 359 359 359 358 357 357 356 356 356 356 355 354 354 353 352 351 350 349 349
292 301 253 268 215 164 142 116 104 87 127 144 119 100 120 142 162 173 184 188 180 187 190 173 188 225 111 187 220 134 168 163 141 150 153 160 164 171 168 177 187 184 194 190 241 132 302 337 20 18 9 3 2 5 7 7 9 9 9 9 7 5 1 359 357 356 356 354 354 353 352 353 354 354 355 356 355 357 358 357 358 358 356 356 355 354 355 355 354 354 353 352 350 349 349 348 347
214 325 281 269 237 199 159 141 125 125 141 151 149 139 143 153 171 187 199 201 183 192 176 151 196 231 273 232 202 127 165 161 158 165 169 173 171 180 178 187 196 197 207 203 230 222 265 320 9 5 350 345 349 351 355 357 0 3 4 5 4 3 360 357 353 351 350 349 349 347 348 347 348 349 349 351 351 354 357 356 356 356 355 354 353 352 353 353 353 353 352 351 349 348 347 347 346
240 149 281 265 250 261 31 126 125 132 143 150 156 153 160 164 179 196 212 220 193 195 161 150 213 238 251 252 213 110 143 161 172 177 178 181 180 186 187 195 201 207 215 214 234 234 249 289 322 335 336 331 334 338 343 346 349 352 354 358 358 359 357 355 350 346 344 343 343 341 341 339 340 341 343 346 347 350 354 355 354 354 353 351 351 350 349 351 353 352 351 349 348 348 346 345 344
269 179 245 264 302 346 2 64 131 137 149 172 175 160 168 171 186 203 212 225 209 216 193 182 223 275 230 243 175 125 147 173 180 180 180 181 185 191 195 201 206 213 219 224 236 238 239 254 284 304 315 322 324 328 334 338 343 344 345 349 349 352 353 351 348 343 340 337 337 336 334 333 333 333 335 339 342 346 349 352 352 351 350 347 347 347 346 349 351 350 349 349 347 347 345 343 341
303 304 274 277 9 333 344 58 128 147 176 192 178 155 167 180 197 213 217 227 217 227 210 188 175 330 248 261 121 142 166 180 179 180 179 182 189 195 200 207 213 218 224 230 235 238 243 246 250 259 289 313 318 322 329 331 337 339 340 341 342 345 347 348 346 342 337 334 333 332 331 328 328 327 327 334 337 342 345 348 348 347 345 342 342 342 343 345 348 348 347 347 347 346 344 340 336
319 324 298 296 90 260 232 98 137 206 191 146 145 145 168 189 204 219 229 233 222 222 106 152 182 255 260 254 160 165 175 173 175 177 177 185 189 195 205 212 220 224 229 232 236 239 239 245 247 244 264 288 294 307 318 320 326 334 335 335 337 339 342 346 346 344 339 334 332 331 331 328 325 323 322 327 332 337 340 341 341 341 340 336 336 336 338 343 344 345 345 346 345 344 340 334 329
322 295 288 264 181 218 194 319 147 251 148 125 141 149 173 181 179 220 238 248 234 90 87 124 192 224 280 258 169 111 139 161 170 174 177 186 192 202 210 217 226 230 233 234 236 239 239 242 246 248 253 263 269 282 294 303 313 323 329 330 332 336 340 343 346 346 342 337 333 330 333 331 326 321 321 322 324 331 333 333 332 331 333 330 329 331 334 338 341 342 343 344 342 337 333 330 328
324 289 258 241 218 241 166 179 216 247 122 124 152 157 181 173 167 221 270 298 320 122 182 193 194 232 304 320 86 92 120 153 166 172 178 187 197 210 216 224 232 234 235 235 235 235 237 238 242 248 249 256 263 274 285 287 297 313 326 329 329 335 337 338 345 347 341 337 330 329 333 332 326 322 321 319 318 324 326 326 324 322 325 325 324 326 330 332 335 338 339 341 338 331 329 330 330
295 261 259 257 231 289 96 196 207 165 103 123 159 169 193 182 175 217 39 282 262 209 209 219 205 231 266 267 109 112 127 152 167 173 183 193 203 215 222 227 230 234 235 233 234 232 234 235 238 245 247 254 259 271 285 287 296 313 324 321 321 330 330 333 343 343 335 335 328 329 332 329 326 322 320 317 315 318 323 323 319 318 319 320 321 322 328 328 330 335 335 337 334 329 330 332 333
275 262 271 295 10 29 20 11 42 16 119 142 167 181 207 199 170 176 190 231 239 238 230 229 226 230 238 209 139 140 139 158 174 182 191 199 207 218 222 224 226 230 231 230 232 230 230 233 236 241 246 249 253 269 280 286 298 309 310 307 312 320 321 327 337 334 332 333 327 330 331 327 323 318 316 314 314 316 319 318 314 314 313 314 316 320 327 323 325 332 331 334 335 336 338 338 337
295 296 279 3 36 43 23 24 47 13 61 137 165 186 213 217 153 161 225 241 223 235 240 227 229 235 232 219 191 174 166 172 183 194 202 207 212 222 225 226 226 227 229 228 230 227 227 231 234 238 242 244 250 267 275 280 290 292 297 304 306 313 316 319 327 327 328 327 325 330 328 324 318 313 312 312 314 316 315 312 311 311 309 310 310 318 325 319 323 329 328 333 339 343 346 342 338
321 306 298 57 61 77 53 40 56 33 40 142 158 171 216 210 123 160 235 264 239 234 243 231 228 236 232 220 208 195 189 189 193 204 211 216 220 226 231 232 230 229 229 229 232 232 227 227 233 239 239 241 249 262 269 275 280 283 294 297 297 309 311 311 320 323 322 320 322 327 323 318 315 310 310 313 315 314 313 311 312 312 310 309 309 316 320 317 322 326 326 332 337 339 342 341 338
11 335 349 59 58 90 71 52 58 42 20 72 142 158 226 205 178 206 242 266 255 245 244 239 239 249 246 227 210 198 198 201 202 211 217 223 226 230 235 237 238 239 235 232 235 234 228 227 235 242 238 237 245 256 264 268 270 276 287 288 289 302 307 307 313 317 317 317 318 320 317 314 313 311 311 313 312 310 310 311 312 314 311 308 308 311 313 315 318 321 323 327 332 332 331 335 333
18 44 36 49 358 48 88 64 50 35 10 68 170 202 233 172 217 228 238 250 259 285 270 247 267 284 288 274 210 189 196 208 209 214 220 225 229 232 236 238 242 242 239 236 235 233 232 235 239 240 237 236 243 253 260 262 265 273 278 273 279 294 300 299 303 310 310 312 314 314 313 313 314 313 312 310 308 308 308 308 310 310 308 305 305 306 307 310 313 315 318 321 324 324 323 325 326
322 90 75 41 15 40 91 78 47 4 289 217 219 293 300 253 255 241 236 242 253 279 25 280 309 349 336 327 212 190 202 214 214 219 221 226 230 233 237 239 241 240 240 239 237 239 239 241 240 236 235 237 244 252 259 261 260 266 264 265 281 289 286 292 298 297 302 310 310 306 307 312 315 313 310 307 305 306 305 305 306 306 304 301 299 300 302 305 308 310 312 314 317 318 317 318 320
359 85 95 42 33 54 73 78 83 340 290 288 329 310 272 257 268 276 245 247 255 265 264 241 242 22 270 255 230 220 223 225 225 227 227 230 234 236 239 241 244 244 244 243 241 243 241 240 238 235 236 238 243 248 253 257 257 259 255 262 278 276 276 289 287 285 301 306 297 296 300 306 313 311 306 303 301 301 302 302 302 302 300 297 295 295 297 301 302 304 308 310 311 314 314 312 314
36 77 111 76 72 87 91 108 136 274 283 314 293 266 265 263 285 295 262 258 260 261 261 242 234 239 235 238 240 233 234 235 234 235 234 236 239 241 242 243 246 246 245 246 244 243 242 239 238 237 237 238 242 245 247 251 255 253 249 257 264 262 274 279 272 286 298 291 285 292 292 302 309 305 301 299 298 299 298 299 298 298 298 294 291 291 293 296 299 301 304 306 306 309 310 309 308
45 86 123 129 126 120 134 176 168 247 263 289 279 271 272 274 312 282 261 263 271 259 257 248 243 248 244 242 243 239 238 241 240 239 240 241 243 242 242 243 244 244 245 247 245 245 244 242 242 239 237 238 240 242 243 248 252 249 247 254 254 258 269 264 272 287 284 276 284 285 284 298 303 297 296 295 295 297 297 298 296 295 296 293 288 287 288 291 294 297 299 301 303 304 304 304 303
78 114 135 139 150 154 167 215 185 251 263 267 285 283 277 235 90 270 252 159 163 231 247 243 243 248 252 249 242 240 241 244 245 246 246 244 242 241 242 242 242 244 246 248 247 247 246 245 245 240 238 238 239 240 242 247 250 247 246 247 249 255 258 258 272 276 267 273 277 279 285 292 293 289 290 290 290 293 295 295 294 294 293 290 284 283 284 286 289 291 294 295 295 298 299 299 297
147 143 179 163 180 183 187 221 203 263 259 270 293 285 271 204 196 254 237 124 152 229 258 245 244 248 253 253 244 239 239 244 246 246 247 245 244 243 244 242 243 246 246 248 248 248 248 246 245 242 239 238 238 241 245 249 248 246 245 245 249 251 252 258 266 263 261 268 269 277 282 280 281 283 285 285 285 287 290 290 290 289 288 286 280 278 280 282 285 285 286 286 287 290 292 294 294
163 202 248 196 205 201 192 210 187 266 294 5 303 290 258 197 219 247 206 145 166 232 263 249 241 244 248 247 240 237 237 240 239 239 243 246 248 249 250 249 249 251 251 251 251 249 248 249 247 243 239 237 238 242 244 246 246 243 243 246 248 247 251 257 258 257 258 260 265 273 273 270 272 274 278 280 280 282 284 283 283 283 282 281 275 275 279 278 279 279 280 281 283 286 287 290 292
184 226 285 262 235 197 172 188 194 235 311 357 307 306 283 196 214 222 145 158 189 224 254 254 243 231 232 234 231 237 237 236 234 237 242 246 250 251 254 255 254 254 255 256 254 251 250 248 245 244 244 242 243 247 245 243 242 240 241 246 245 244 250 252 250 253 253 255 261 265 264 263 263 264 270 274 274 275 277 277 277 277 276 275 272 272 276 275 274 275 277 280 281 283 286 288 290
216 226 244 254 300 130 149 156 208 222 114 355 299 292 306 248 201 182 152 179 204 246 269 274 267 242 227 223 225 237 239 241 244 247 248 248 252 252 254 257 256 255 255 255 255 254 253 247 244 250 256 255 252 251 250 245 240 239 241 244 242 242 246 244 246 250 249 250 254 255 256 256 257 258 263 268 269 269 271 273 271 272 272 270 268 270 273 271 271 274 275 276 278 282 283 286 287
240 298 295 272 338 44 145 135 230 280 105 199 273 278 292 324 156 159 162 195 211 255 277 280 275 263 252 242 237 249 254 256 258 257 255 253 253 251 252 256 257 256 255 256 257 256 255 249 245 253 261 260 256 254 253 249 241 238 240 242 241 242 247 245 243 247 246 247 248 251 253 253 254 254 258 262 263 263 265 268 267 267 267 266 265 268 269 267 268 271 271 270 275 280 282 284 285
193 302 329 327 324 321 173 120 168 286 335 215 234 273 288 307 116 160 181 205 224 258 277 277 273 266 262 261 258 263 268 269 266 263 261 256 252 250 251 257 260 259 258 257 257 256 255 253 247 249 256 257 253 250 250 248 243 239 237 240 242 243 246 246 243 243 243 243 246 251 250 250 250 250 255 257 257 259 259 262 264 263 263 262 262 264 264 264 265 267 267 266 270 276 279 281 284
351 338 327 322 313 314 302 159 143 204 268 254 243 256 272 275 277 270 232 216 236 263 281 284 279 267 258 260 263 269 277 281 284 289 286 267 258 254 253 259 263 265 264 261 259 258 257 256 251 248 251 251 247 244 242 242 241 239 236 237 241 242 244 245 241 238 239 239 242 246 246 247 250 251 255 255 253 254 255 258 259 260 260 257 259 260 261 260 261 263 265 266 268 272 276 280 284
324 323 320 321 312 304 301 317 84 329 285 279 274 265 272 279 285 291 283 263 257 265 285 292 284 269 256 253 263 275 289 300 315 328 325 290 266 260 258 262 266 268 269 268 263 261 260 259 255 252 252 250 247 243 239 237 237 237 236 236 238 239 240 241 237 236 237 236 237 244 248 247 249 253 255 252 249 249 251 254 255 255 254 254 256 257 257 257 257 258 262 265 267 268 272 277 281
311 309 301 302 301 296 303 336 78 11 307 279 277 275 281 288 291 295 299 290 272 267 276 279 263 245 229 232 261 282 299 325 338 326 309 285 272 265 260 265 271 274 278 279 275 270 268 267 265 262 259 255 250 245 238 234 232 232 232 232 233 233 235 235 236 238 240 237 236 243 249 250 250 251 249 245 243 244 246 248 250 251 249 250 252 252 254 255 255 257 260 263 266 267 270 273 276
296 287 277 280 284 286 299 346 90 51 307 277 281 286 286 288 291 295 300 300 264 251 241 223 202 169 152 164 192 270 314 331 311 294 284 272 267 266 280 299 304 298 294 289 285 282 277 275 272 270 268 262 252 246 239 234 233 233 231 231 232 232 231 231 232 235 237 238 239 241 245 249 252 252 246 240 238 238 241 244 245 246 245 246 247 250 252 253 255 257 259 262 264 268 270 270 274
280 276 278 281 278 283 307 19 95 99 307 283 292 297 288 287 293 300 301 263 204 206 181 164 156 140 137 144 149 25 355 318 298 301 312 317 304 270 317 324 322 315 312 306 295 291 288 283 277 276 275 266 255 248 243 240 240 240 240 240 240 239 234 229 229 229 230 235 239 239 242 246 251 251 243 234 233 233 234 237 240 241 242 243 246 249 250 251 252 252 254 258 261 264 266 267 271
261 262 271 283 306 314 316 86 122 165 246 288 309 311 289 287 295 308 316 152 147 142 144 147 142 137 137 123 90 5 350 338 342 349 359 8 12 12 354 335 323 315 319 321 316 312 307 298 291 286 281 272 263 255 248 248 249 247 247 248 249 248 244 237 234 231 227 228 230 235 242 247 249 247 238 230 229 228 227 230 235 238 238 240 243 246 247 247 248 247 248 252 258 261 264 264 263
242 249 270 284 329 342 304 130 321 275 260 285 306 295 279 283 288 35 112 131 125 129 191 217 235 205 140 53 355 298 313 337 354 4 12 13 8 3 355 346 339 328 325 334 340 337 328 316 307 298 288 280 272 262 255 255 256 253 251 250 250 251 251 247 242 237 232 227 227 231 238 244 246 242 234 228 228 226 223 225 230 235 236 236 238 242 244 244 243 243 242 244 250 255 260 262 259
243 227 251 287 314 328 301 309 311 292 266 278 303 291 272 250 202 164 130 150 162 162 196 213 227 230 241 278 274 257 278 335 6 14 17 9 360 355 349 346 346 343 344 350 352 346 336 327 319 309 297 287 279 270 263 259 257 253 250 248 247 248 249 246 242 239 235 230 232 234 237 239 240 236 230 226 226 223 221 222 226 231 234 233 235 238 241 242 241 239 238 239 241 247 256 263 260
271 218 239 316 325 315 301 312 319 306 284 123 332 313 308 144 195 187 142 177 180 156 187 200 201 208 214 240 269 286 11 34 30 20 10 360 353 349 345 346 349 349 354 358 354 346 337 331 326 320 308 295 287 281 270 259 255 252 247 244 243 243 244 240 238 240 235 231 235 238 237 233 230 229 227 225 225 221 219 220 222 227 232 233 233 235 237 239 238 235 234 235 237 242 250 258 260
291 221 33 15 326 301 300 313 319 309 309 285 141 294 287 264 264 153 132 177 167 154 192 199 190 193 197 225 346 44 47 39 27 12 2 355 350 346 345 347 348 348 354 355 349 344 340 335 332 327 318 306 297 291 279 264 257 255 250 248 248 249 251 250 247 245 239 235 235 232 226 223 223 223 223 224 225 222 219 218 220 224 229 232 232 233 234 234 234 232 229 230 234 238 241 247 253
293 95 25 7 291 290 296 304 286 282 308 290 179 226 269 283 300 109 124 182 169 169 187 186 190 185 172 73 59 52 38 25 13 3 355 351 348 346 346 346 347 350 352 349 341 337 338 339 338 333 325 316 306 299 289 276 267 263 259 257 258 256 257 261 260 257 250 239 230 222 216 216 218 219 221 223 223 221 218 217 218 221 226 229 230 230 231 231 230 229 227 226 230 232 233 238 245
348 100 329 304 284 282 277 282 276 279 307 284 176 193 258 288 314 124 144 176 150 150 143 132 154 86 57 47 49 40 26 15 4 357 351 349 347 346 347 346 348 352 352 348 342 337 333 332 336 337 332 325 317 308 298 290 282 274 267 264 265 264 262 264 265 261 255 242 228 222 219 217 217 218 219 219 219 219 218 217 216 218 222 225 227 227 228 228 227 226 224 222 223 226 229 233 240
59 79 279 264 245 255 254 260 274 271 272 266 149 165 268 303 307 127 149 139 101 115 119 83 56 50 41 36 35 22 13 4 356 354 350 348 346 344 346 346 348 351 349 346 344 340 336 330 328 330 332 329 323 314 302 299 293 277 268 267 267 269 269 268 267 261 253 243 234 229 226 224 222 220 219 217 218 218 218 217 215 216 219 221 223 225 225 226 226 225 222 220 220 222 226 230 234
356 280 269 256 224 217 238 243 255 259 244 206 100 111 305 308 318 65 89 86 48 40 61 52 40 35 31 30 24 10 3 358 353 353 347 344 344 342 344 345 348 349 346 345 343 340 338 334 329 325 326 327 325 317 302 301 297 279 270 270 269 271 272 270 269 263 255 246 239 234 230 228 225 222 219 217 217 217 217 218 216 215 217 219 221 222 223 224 223 222 220 219 219 220 223 228 232
286 272 277 281 249 203 225 203 193 249 259 99 96 54 295 272 267 24 58 70 51 38 43 40 29 24 20 16 13 7 2 358 353 347 343 342 341 341 344 347 350 348 345 344 342 339 337 334 331 327 325 325 325 321 308 298 296 290 284 277 271 271 272 269 267 264 259 253 247 241 234 229 226 223 219 216 216 215 214 216 217 216 215 217 218 219 220 221 220 220 218 216 218 218 221 225 229
233 260 286 302 303 284 268 249 244 269 303 107 100 13 280 257 273 351 45 66 68 64 60 47 35 23 12 7 6 4 359 356 351 345 341 340 338 340 344 349 351 345 340 338 336 335 332 328 326 326 327 329 328 325 318 303 292 294 293 284 276 275 273 269 267 264 261 258 254 250 240 231 226 222 217 215 214 212 212 214 215 215 215 215 216 217 218 218 218 218 217 215 215 215 218 222 226
239 287 317 310 317 311 296 295 289 293 7 123 108 29 276 265 285 56 76 83 83 77 71 64 49 25 9 7 4 359 355 351 348 343 339 338 337 338 344 350 348 340 336 334 330 327 325 325 327 329 330 333 332 330 326 316 301 294 292 285 281 279 276 273 270 266 264 261 258 254 249 238 229 224 218 216 213 210 210 213 214 215 215 215 215 216 216 216 216 217 216 215 215 215 217 220 224
291 3 319 285 300 301 296 309 306 300 311 295 136 165 268 272 96 110 111 106 89 67 58 52 45 23 5 3 0 356 352 347 345 340 335 335 333 335 345 349 342 337 335 332 329 329 329 329 330 329 328 330 332 330 328 325 315 304 296 290 285 280 278 276 274 271 266 263 260 258 255 246 237 230 222 216 211 208 209 212 214 216 215 215 215 215 215 215 215 216 216 215 215 216 216 219 222
74 43 275 264 316 305 285 293 296 301 304 280 218 224 255 266 126 123 124 111 71 42 33 30 27 17 5 360 356 352 348 346 342 336 334 332 331 337 348 344 338 337 336 334 332 333 333 332 330 329 327 327 326 323 323 324 321 314 305 296 291 286 280 276 274 274 270 265 261 258 256 251 244 237 227 217 210 209 211 210 211 214 214 214 215 215 215 214 214 214 215 216 216 215 216 218 220
141 255 284 325 349 314 287 282 279 270 275 257 231 249 269 283 209 134 125 90 45 26 19 17 13 8 3 357 352 347 343 341 338 334 335 333 334 345 347 339 337 336 335 335 334 334 333 331 330 328 327 327 326 324 322 322 322 318 312 303 298 295 290 283 277 276 275 272 267 261 257 253 246 237 227 218 211 211 211 208 209 212 211 212 214 214 214 214 213 215 215 216 215 215 216 217 219
278 278 341 347 288 270 276 279 282 274 272 267 263 270 284 302 254 158 115 41 24 15 10 7 2 358 355 351 346 342 338 337 337 336 336 336 338 344 340 336 336 335 333 332 332 333 332 330 329 326 324 324 325 326 325 323 324 323 319 312 307 303 298 294 289 285 280 276 272 266 260 253 244 234 225 220 216 213 211 209 210 211 211 212 213 213 213 213 214 216 216 216 216 214 215 217 217
299 309 330 309 279 256 232 259 300 294 283 285 277 264 267 281 271 155 45 24 15 8 5 360 355 352 347 345 341 339 338 338 337 337 337 336 335 338 338 336 335 334 333 331 331 330 328 326 326 324 322 321 321 322 322 322 324 324 322 318 314 310 305 299 296 294 289 280 273 268 262 253 244 235 228 226 226 221 214 210 210 211 211 213 213 213 212 212 213 215 216 217 216 213 213 215 215
214 272 251 183 285 280 269 285 310 292 285 291 285 260 253 281 6 41 33 23 11 3 360 354 349 346 341 340 338 337 338 337 336 336 333 331 334 339 337 333 333 333 332 332 330 329 326 325 325 324 321 320 319 319 320 321 321 321 320 319 317 313 309 305 298 294 291 285 278 271 264 254 248 242 232 230 231 226 216 209 209 211 211 212 214 215 213 212 212 214 215 215 214 212 212 213 214
192 228 215 197 218 253 287 272 248 266 278 290 290 278 272 26 44 39 27 16 9 1 355 348 344 340 338 339 338 337 337 336 335 332 329 335 344 343 334 329 331 333 332 331 329 327 326 324 324 323 321 318 317 317 318 319 319 318 318 318 316 311 308 307 304 297 290 285 280 274 267 258 251 244 236 233 234 229 220 211 209 210 211 212 214 215 215 214 214 214 213 214 213 211 212 212 212
297 263 252 267 259 267 289 269 207 231 268 287 294 285 290 313 4 40 24 4 5 1 352 345 340 338 337 337 338 337 336 335 332 332 337 347 346 338 330 330 333 333 331 329 328 327 326 325 324 322 319 317 315 315 315 316 316 315 315 316 315 312 308 305 305 301 294 289 280 274 270 260 250 243 240 238 237 233 225 214 210 211 211 213 215 216 216 216 216 215 213 214 213 211 211 211 211